Weather in Staryye Chelny

Russia / Republic of Tatarstan     54°58′51″N   50°03′15″E
temp.,
°C
wind,
m/s
gust,
m/s
humid.,
%
clouds,
%
prec.,
mm/h
press.,
hPa
HPBL,
m
14 may, fri
fri1400:00+17sse5146613 0.0 1022251
03:00+15sse4127332 0.2 1022184
06:00+17se514665 0.4 1022314
09:00+23sse7114530 0.4 1021569
12:00+26s7103897 0.0 10211160
15:00+27ssw61239100 0.0 10201855
18:00+23ssw410560 0.0 1020271
21:00+18s4126168 0.0 1020222
15 may, sat
sat1500:00+17s4126211 0.0 1020206
03:00+16s495956 0.0 1020141
06:00+17s4136056 0.0 1020258
09:00+23ssw61045100 0.0 1020444
12:00+28ssw7103552 0.0 1020910
15:00+28ssw6103818 0.0 10191262
18:00+23ssw412525 0.0 1019263
21:00+19s411495 0.0 1019160
16 may, sun
sun1600:00+18s414495 0.0 1018192
03:00+16s412516 0.0 1018162
06:00+18s412605 0.0 1018257
09:00+24ssw6104539 0.0 1018517
12:00+28ssw69355 0.0 10181352
15:00+27sw694275 0.0 10171224
18:00+23ssw410545 0.0 1016242
21:00+19ssw410585 0.0 1017134
17 may, mon
mon1700:00+17ssw355618 0.0 101760
03:00+17ssw33566 0.0 101819
06:00+19s236033 0.0 101891
09:00+25ssw46475 0.0 1018571
12:00+29sw583647 0.0 10171338
15:00+29sw563757 0.0 10171848
18:00+26ssw23585 0.0 101756
21:00+20ese11505 0.1 101711
18 may, tue
tue1800:00+18ese005860 0.0 101711
03:00+18s3359100 0.0 101733
06:00+20s2361100 0.0 101782
09:00+25s2347100 0.0 1017360
12:00+28ssw2334100 0.0 10171092
15:00+29s2428100 0.0 10161704
18:00+25sse224383 0.0 101611
21:00+21sse224819 0.0 101611